SCP
0 0 0 0 0 0 0 0 0 0 0 0 0 0 0 0 0 0 0 0 0 0
0 0 0 0 0 0 0 0 0 0 0 0 0 0 0 0 0 0 0 0 0 0
0 0 0 0 0 0 0 0 0 0 0 0 0 0 0 0 0 0 0 0 0 0
0 0 0 0 0 0 0 0 0 0 0 0 0 0 0 0 0 0 0 0 0 0
0 0 0 0 0 0 0 0 0 0 0 0 0 0 0 0 0 0 0 0 0 0
0 0 0 0 0 0 0 0 0 0 0 0 0 0 0 0 0 0 0 0 0 0
0 0 0 0 0 0 0 0 0 0 0 0 0 0 0 0 0 0 0 0 0 0
0 0 0 0 0 0 0 0 0 0 0 0 0 0 0 0 0 0 0 0 0 0
0 0 0 0 0 0 0 0 0 0 0 0 0 0 0 0 0 0 0 0 0 0
0 0 0 0 0 0 0 0 0 0 0 0 0 0 0 0 0 0 0 0 0 0
0 0 0 0 0 0 0 0 0 0 0 0 0 0 0 0 0 0 0 0 0 0
0 0 0 0 0 0 0 0 0 0 0 0 0 0 0 0 0 0 0 0 0 0
0 0 0 0 0 0 0 0 0 0 0 0 0 0 0 0 0 0 0 0 0 0
0 0 0 0 0 0 0 0 0 0 0 0 0 0 0 0 0 0 0 0 0 0
Wind_Speed_500mb
84 85 85 86 87 86 82 75 66 65 63 57 51 51 49 47 47 46 47 46 44 44
87 86 87 87 87 85 81 74 71 69 64 59 54 52 50 49 49 46 47 45 43 44
93 87 87 86 87 87 84 82 77 72 66 61 55 52 52 51 50 48 45 44 44 46
101 97 93 87 87 88 86 85 79 73 67 61 56 55 54 51 50 48 45 44 46 48
108 103 98 92 89 87 85 83 79 74 69 65 60 59 56 53 48 47 46 45 49 52
112 106 102 98 91 84 84 85 82 77 70 66 63 60 56 49 47 48 48 48 51 55
110 107 104 101 94 83 82 85 85 79 72 70 65 60 54 50 47 49 50 49 52 57
105 104 104 104 93 82 79 84 83 81 76 73 65 59 53 49 47 49 50 48 52 57
102 103 105 103 91 84 81 86 86 85 78 70 63 55 51 49 48 49 46 49 53 56
98 100 103 97 92 89 87 86 90 87 78 69 59 54 50 48 49 45 44 47 51 54
94 97 97 95 92 89 86 88 93 87 75 65 56 53 47 50 44 41 43 42 48 53
93 94 96 94 92 89 87 89 93 83 72 65 59 53 56 45 42 40 37 40 46 44
88 91 92 90 91 89 84 88 90 82 69 59 53 58 47 45 37 36 34 42 42 46
82 86 87 88 89 88 89 95 93 79 67 56 57 49 47 40 35 27 33 38 44 45
Wind_Direction_500mb
235 236 236 236 239 238 238 238 238 238 238 242 249 259 264 270 276 283 288 293 295 297
235 236 236 236 239 239 239 237 234 235 238 240 245 254 263 269 274 279 285 289 295 300
236 236 238 238 240 238 237 235 234 234 235 240 246 253 258 265 271 278 284 288 294 298
235 235 236 239 239 238 236 234 233 234 236 239 246 253 258 264 269 276 281 287 290 295
237 237 238 240 239 238 235 234 233 233 235 238 243 250 255 261 270 275 280 286 291 295
239 238 239 240 239 236 234 233 232 232 233 239 242 246 253 258 267 276 282 288 293 298
240 241 239 241 238 234 234 232 231 230 230 235 241 247 252 258 266 274 281 288 295 298
241 240 240 240 236 234 233 232 229 228 229 233 237 244 250 257 267 276 282 292 297 298
239 238 238 236 233 230 230 228 226 225 228 232 238 243 250 260 267 275 288 297 299 300
237 238 235 235 231 228 226 225 225 223 225 230 236 243 252 262 268 279 289 295 297 302
238 235 235 232 229 227 224 222 222 221 223 228 232 239 249 256 269 277 283 292 301 304
237 234 232 229 227 226 223 221 220 220 221 223 228 239 244 256 262 270 282 294 301 308
236 235 233 230 227 224 222 220 219 219 220 223 231 238 243 247 252 265 287 294 302 311
238 235 233 229 225 222 216 214 215 216 217 221 231 236 242 243 249 267 280 293 302 311
Wind_Speed_850mb
84 85 85 86 87 86 82 75 66 65 63 57 51 51 49 47 47 46 47 46 44 44
87 86 87 87 87 85 81 74 71 69 64 59 54 52 50 49 49 46 47 45 43 44
93 87 87 86 87 87 84 82 77 72 66 61 55 52 52 51 50 48 45 44 44 46
101 97 93 87 87 88 86 85 79 73 67 61 56 55 54 51 50 48 45 44 46 48
108 103 98 92 89 87 85 83 79 74 69 65 60 59 56 53 48 47 46 45 49 52
112 106 102 98 91 84 84 85 82 77 70 66 63 60 56 49 47 48 48 48 51 55
110 107 104 101 94 83 82 85 85 79 72 70 65 60 54 50 47 49 50 49 52 57
105 104 104 104 93 82 79 84 83 81 76 73 65 59 53 49 47 49 50 48 52 57
102 103 105 103 91 84 81 86 86 85 78 70 63 55 51 49 48 49 46 49 53 56
98 100 103 97 92 89 87 86 90 87 78 69 59 54 50 48 49 45 44 47 51 54
94 97 97 95 92 89 86 88 93 87 75 65 56 53 47 50 44 41 43 42 48 53
93 94 96 94 92 89 87 89 93 83 72 65 59 53 56 45 42 40 37 40 46 44
88 91 92 90 91 89 84 88 90 82 69 59 53 58 47 45 37 36 34 42 42 46
82 86 87 88 89 88 89 95 93 79 67 56 57 49 47 40 35 27 33 38 44 45
Wind_Direction_850mb
235 236 236 236 239 238 238 238 238 238 238 242 249 259 264 270 276 283 288 293 295 297
235 236 236 236 239 239 239 237 234 235 238 240 245 254 263 269 274 279 285 289 295 300
236 236 238 238 240 238 237 235 234 234 235 240 246 253 258 265 271 278 284 288 294 298
235 235 236 239 239 238 236 234 233 234 236 239 246 253 258 264 269 276 281 287 290 295
237 237 238 240 239 238 235 234 233 233 235 238 243 250 255 261 270 275 280 286 291 295
239 238 239 240 239 236 234 233 232 232 233 239 242 246 253 258 267 276 282 288 293 298
240 241 239 241 238 234 234 232 231 230 230 235 241 247 252 258 266 274 281 288 295 298
241 240 240 240 236 234 233 232 229 228 229 233 237 244 250 257 267 276 282 292 297 298
239 238 238 236 233 230 230 228 226 225 228 232 238 243 250 260 267 275 288 297 299 300
237 238 235 235 231 228 226 225 225 223 225 230 236 243 252 262 268 279 289 295 297 302
238 235 235 232 229 227 224 222 222 221 223 228 232 239 249 256 269 277 283 292 301 304
237 234 232 229 227 226 223 221 220 220 221 223 228 239 244 256 262 270 282 294 301 308
236 235 233 230 227 224 222 220 219 219 220 223 231 238 243 247 252 265 287 294 302 311
238 235 233 229 225 222 216 214 215 216 217 221 231 236 242 243 249 267 280 293 302 311